Location: Belfast
(54.5830°N, 5.9330°W)
Time: 13:00:09
(UTC+00:00)

ISS - Pass Details

Date: 09 December 2017
Orbit: 402 x 406 km, 51.6° (Epoch: 16 December)

Event Time Altitude Azimuth Distance (km) Brightness Sun altitude
Rises 18:50:55 0° 274° (W) 2,333 1.4 -23.4°
Reaches altitude 10° 18:53:07 10° 265° (W) 1,470 0.1 -23.7°
Enters shadow 18:55:30 30° 224° (SW) 756 -2.1 -24.1°
